Wind_Speed
13 11 13 14 17 19 18 16 17 18 19 18 16 14 12 13 14 14 14 13 14 13 11 14 13 13 12 14 16 19 22 23 24 27 33 33 32 31 32 35 36 38 39
15 14 16 20 21 20 19 18 17 17 16 15 15 14 14 14 13 13 14 16 15 13 14 13 13 14 15 17 19 21 24 22 20 26 29 31 35 42 38 35 38 39 37
14 17 19 20 21 21 19 18 17 16 16 17 18 17 14 13 13 12 14 16 13 14 13 13 14 15 18 22 23 24 27 33 35 32 34 34 33 36 39 42 36 37 36
16 18 18 19 18 19 20 20 20 20 19 19 18 18 17 15 14 15 15 17 16 14 13 13 15 17 21 25 27 32 34 30 34 34 40 37 37 35 38 37 41 41 33
18 19 19 20 21 22 21 22 21 21 21 21 19 19 20 20 19 19 22 17 17 17 15 16 19 21 24 28 32 35 33 38 32 38 41 39 36 37 37 37 32 34 36
21 21 20 20 21 22 23 23 22 22 23 23 22 22 23 23 23 23 18 19 20 19 18 19 22 24 25 29 36 34 29 27 33 38 36 35 36 36 35 34 33 34 33
27 25 25 24 25 24 23 22 22 23 22 23 23 23 21 24 25 25 22 21 21 20 21 24 25 26 28 32 31 30 24 32 33 37 38 38 37 34 31 33 35 36 35
25 32 29 26 26 26 25 23 25 22 20 19 18 18 26 28 25 26 23 22 23 24 25 27 27 25 28 32 38 31 36 38 38 40 40 39 37 32 32 34 37 38 38
18 26 32 33 28 26 23 19 23 22 19 18 23 22 23 25 26 25 25 26 25 26 27 26 27 31 29 33 34 37 39 38 40 41 41 37 32 33 34 36 37 39 41
14 18 25 29 30 29 27 27 22 21 21 21 22 24 24 27 27 27 26 25 25 26 24 27 33 34 30 28 35 39 38 39 41 41 39 34 34 35 37 36 38 40 42
5 14 18 21 26 28 26 25 29 26 23 21 21 22 23 25 27 27 26 25 27 30 23 31 36 21 26 28 33 35 37 39 40 38 35 34 36 37 36 38 41 43 44
4 5 7 13 24 29 29 28 27 26 23 20 17 17 18 22 23 24 26 29 31 25 17 29 33 24 31 30 34 37 39 39 37 34 34 35 35 37 39 41 43 45 45
12 13 11 13 13 20 25 26 24 25 27 23 20 19 19 20 24 28 34 33 34 27 16 27 29 24 23 33 34 40 37 34 33 33 34 35 37 39 41 43 45 45 42
15 11 11 15 17 17 19 22 23 26 27 25 25 26 26 29 25 23 33 35 36 28 22 32 30 25 27 35 36 36 33 32 32 33 34 37 39 41 43 45 47 47 47
20 19 17 17 20 21 22 22 21 23 25 23 25 26 28 27 28 34 36 31 20 28 23 34 31 30 36 34 32 31 31 32 34 35 38 41 43 44 45 47 48 46 48
20 20 20 20 19 25 23 24 24 22 24 25 27 29 30 30 28 29 34 35 30 21 29 28 32 34 34 30 30 32 33 34 36 39 42 45 48 50 50 50 48 46 46
28 29 29 28 28 28 29 27 26 27 27 29 31 32 32 30 23 25 29 29 24 31 30 33 33 33 30 30 31 33 36 38 40 43 47 49 51 53 54 52 50 47 42
21 19 19 22 22 24 27 28 29 30 31 33 33 31 27 23 23 25 27 31 29 30 35 36 33 32 29 30 33 35 39 43 45 48 50 53 54 53 49 47 44 42 39
14 13 13 13 15 18 21 23 25 29 32 32 28 25 23 22 24 26 24 30 33 36 33 32 30 31 32 33 35 40 44 47 49 51 53 55 55 51 46 43 40 38 35
15 15 16 19 20 21 22 23 22 23 23 24 24 22 23 22 20 28 31 29 33 34 30 29 31 33 34 37 39 42 46 50 53 55 55 54 53 49 38 41 36 34 30
18 17 17 17 18 19 19 20 20 22 23 23 23 19 21 27 30 31 31 33 31 29 29 31 33 35 37 40 42 44 48 51 54 55 55 54 50 48 40 38 37 32 28
18 17 17 17 17 17 18 19 20 22 20 23 21 24 26 28 29 30 30 29 29 30 32 33 35 37 40 42 44 45 47 50 52 53 53 51 47 43 39 32 35 38 32
19 18 17 17 17 17 19 20 20 20 21 22 24 25 28 29 29 29 27 28 30 32 34 36 38 41 42 44 45 48 51 52 53 53 51 46 41 37 34 31 33 33 28
20 19 18 18 19 19 20 19 20 20 22 25 27 28 27 29 26 27 28 30 32 34 36 38 40 42 44 46 47 50 52 53 52 49 44 39 36 30 26 28 25 26 22
21 20 19 20 21 21 21 21 22 23 25 26 26 28 25 25 26 27 30 32 34 35 38 40 42 43 44 46 49 51 53 53 49 45 38 31 25 23 20 21 20 19 19
23 22 22 22 23 23 23 23 25 26 25 26 25 23 24 25 27 30 32 32 35 38 40 41 42 44 46 47 49 50 50 48 44 39 32 26 23 21 18 17 19 19 21
Wind_Direction
163 150 154 156 155 155 152 152 157 164 167 166 164 171 174 188 197 203 212 218 232 244 260 279 286 286 290 294 301 304 304 298 295 301 315 310 306 311 311 311 310 310 311
176 177 168 164 161 162 166 168 169 171 171 172 180 188 199 204 209 215 220 239 239 250 262 280 285 285 286 290 300 296 305 304 304 320 317 316 318 313 312 312 310 308 309
185 181 179 174 176 179 179 180 184 186 190 198 207 211 214 216 220 229 235 248 249 258 266 279 285 284 284 289 294 295 297 294 296 300 320 317 314 312 312 310 310 307 308
201 200 196 193 192 189 194 197 198 199 206 212 217 221 225 228 229 237 243 246 250 254 270 277 282 281 281 283 293 291 298 298 297 300 312 314 310 310 307 304 312 311 309
216 209 204 204 207 206 207 209 213 214 219 223 229 233 237 234 236 243 251 255 253 256 260 267 277 273 278 283 286 294 303 297 290 307 313 315 311 308 305 304 303 300 307
224 220 215 213 211 214 217 220 222 226 230 233 240 245 247 246 237 245 269 255 249 252 260 268 273 275 286 291 286 280 294 299 303 306 309 309 306 304 301 299 300 300 303
227 224 222 220 217 219 221 226 229 234 241 245 249 251 248 258 246 248 257 242 249 255 261 264 270 276 283 287 296 283 307 312 316 315 311 309 306 301 298 297 298 300 303
230 228 227 227 227 229 232 235 237 235 242 244 244 246 248 255 251 250 253 243 246 252 260 266 271 281 282 281 274 297 312 309 313 311 309 307 304 302 299 299 302 304 305
231 228 228 231 232 232 233 239 242 240 222 234 243 259 259 256 255 250 247 239 251 261 269 273 278 280 283 285 272 303 310 310 310 308 307 306 302 299 299 301 303 304 307
220 220 225 226 227 234 235 238 248 241 234 239 252 263 264 258 253 251 240 245 257 263 262 278 278 268 275 282 298 304 307 308 305 306 304 303 301 299 299 302 304 305 306
220 222 218 219 223 220 219 231 237 244 236 251 258 264 261 258 252 248 246 253 257 262 271 269 270 283 296 301 308 307 305 304 303 302 300 298 298 299 303 304 305 306 305
257 272 258 238 228 222 223 222 227 231 236 246 254 254 255 255 256 250 250 252 253 253 281 276 278 289 300 295 300 302 303 302 300 297 296 299 300 303 303 303 305 305 304
260 273 266 254 240 232 229 230 231 231 234 240 251 259 253 248 245 255 241 251 255 249 318 267 280 308 284 299 301 301 302 301 298 298 300 301 301 302 302 303 304 304 302
259 271 264 251 239 238 232 231 234 240 239 248 252 261 278 286 280 284 262 255 243 300 299 255 302 302 295 304 301 301 302 301 301 302 301 300 300 302 302 302 303 304 303
255 260 261 259 248 240 236 230 242 242 245 254 263 267 270 272 271 266 265 263 280 296 279 296 306 305 304 303 304 304 304 304 303 303 303 302 302 302 301 301 301 300 299
255 255 258 255 258 244 241 240 247 249 255 257 258 265 265 267 263 271 261 293 312 283 303 300 305 304 304 305 303 304 304 304 304 305 304 303 303 303 302 300 299 298 296
261 257 258 260 257 247 239 243 246 252 255 254 259 262 262 264 266 266 279 291 284 297 297 308 309 304 302 304 305 306 306 306 306 306 304 304 304 302 301 300 300 299 296
260 255 253 251 251 249 243 245 250 253 254 255 257 262 262 269 277 271 290 294 289 302 300 303 302 300 303 306 307 307 306 306 307 306 305 304 303 301 300 298 296 296 294
244 247 253 257 259 258 255 253 250 252 251 254 255 260 274 278 275 280 279 289 295 300 297 297 298 303 307 308 308 307 306 307 308 306 306 305 304 303 299 296 293 292 293
243 251 258 263 265 267 268 267 260 256 253 259 266 273 278 292 274 287 292 289 294 296 296 298 302 305 307 307 307 307 306 308 309 309 308 307 306 304 293 292 290 288 292
250 258 263 270 273 270 265 263 263 265 268 272 278 277 275 277 284 284 285 291 291 293 296 301 304 305 306 308 309 309 309 310 310 310 309 308 304 300 293 279 282 289 288
253 263 274 274 269 266 265 263 263 268 273 275 275 273 280 281 280 284 289 289 292 296 300 302 303 305 307 308 309 310 311 311 310 311 310 307 303 297 291 272 274 281 277
261 270 273 270 269 265 262 264 269 274 272 269 274 279 276 279 285 287 287 292 297 300 301 304 306 307 309 309 311 313 315 316 315 315 313 310 307 298 286 269 278 287 266
264 270 267 267 265 264 264 265 271 278 276 277 274 276 281 285 285 288 293 296 298 300 302 304 306 308 310 312 314 316 318 319 318 317 315 315 310 303 289 286 281 280 265
266 266 267 267 266 264 265 271 277 282 278 275 276 281 281 284 289 293 296 297 299 301 304 306 308 310 311 313 316 319 320 319 319 316 313 311 308 303 295 289 280 269 276
268 267 266 266 262 259 263 269 278 275 270 275 277 279 285 289 292 294 296 297 301 303 305 307 309 311 312 314 317 319 318 317 316 313 306 296 296 304 292 285 284 280 276
Height
3120 3121 3122 3125 3126 3127 3130 3133 3136 3138 3141 3143 3145 3148 3150 3153 3155 3156 3157 3158 3159 3160 3160 3161 3160 3160 3159 3158 3157 3157 3155 3153 3152 3150 3147 3142 3141 3138 3135 3131 3129 3124 3120
3120 3121 3123 3125 3127 3129 3132 3134 3137 3139 3141 3143 3146 3147 3149 3151 3152 3153 3155 3155 3155 3155 3157 3157 3157 3156 3155 3154 3153 3152 3150 3148 3148 3146 3142 3139 3134 3127 3127 3125 3121 3116 3114
3120 3121 3123 3125 3127 3129 3132 3133 3135 3137 3139 3142 3144 3146 3147 3148 3149 3150 3151 3151 3152 3152 3153 3153 3153 3152 3151 3150 3149 3148 3146 3144 3142 3140 3138 3132 3129 3125 3118 3113 3114 3109 3105
3120 3121 3122 3124 3126 3128 3130 3132 3133 3136 3138 3139 3141 3142 3144 3145 3146 3147 3147 3147 3148 3149 3148 3148 3148 3148 3147 3145 3144 3142 3141 3138 3135 3131 3129 3127 3122 3118 3114 3109 3100 3094 3097
3118 3119 3121 3123 3125 3126 3128 3130 3131 3132 3134 3136 3137 3138 3139 3140 3141 3142 3139 3142 3144 3144 3144 3144 3143 3142 3141 3139 3138 3136 3133 3130 3129 3125 3122 3115 3113 3109 3106 3100 3098 3093 3088
3114 3116 3118 3120 3122 3124 3125 3126 3127 3129 3131 3132 3134 3135 3136 3137 3136 3136 3136 3137 3139 3139 3138 3138 3137 3136 3135 3133 3130 3127 3125 3124 3122 3118 3114 3110 3106 3101 3096 3091 3089 3085 3082
3110 3112 3114 3116 3118 3119 3121 3122 3124 3126 3127 3129 3130 3131 3131 3132 3131 3131 3131 3131 3132 3132 3132 3131 3130 3129 3127 3124 3121 3119 3116 3115 3111 3108 3105 3100 3096 3093 3089 3084 3080 3076 3074
3103 3106 3110 3112 3114 3116 3118 3120 3121 3122 3124 3124 3126 3127 3127 3127 3125 3125 3125 3125 3126 3125 3125 3124 3122 3121 3119 3116 3113 3111 3107 3106 3103 3099 3095 3091 3086 3082 3079 3076 3071 3066 3064
3098 3100 3103 3106 3109 3111 3114 3115 3116 3117 3118 3120 3120 3120 3120 3119 3119 3119 3119 3119 3119 3119 3119 3117 3115 3113 3112 3109 3107 3104 3100 3097 3094 3091 3086 3082 3077 3074 3072 3068 3063 3058 3053
3095 3096 3098 3100 3103 3105 3108 3110 3112 3113 3113 3114 3114 3115 3114 3113 3113 3112 3112 3113 3113 3113 3112 3111 3108 3105 3103 3103 3101 3097 3092 3090 3086 3082 3076 3073 3069 3067 3063 3058 3054 3049 3044
3093 3094 3095 3097 3098 3100 3101 3104 3106 3108 3108 3109 3109 3108 3107 3107 3106 3107 3107 3108 3107 3106 3104 3102 3098 3097 3097 3095 3092 3089 3086 3082 3077 3072 3068 3066 3062 3058 3053 3048 3044 3039 3033
3091 3092 3092 3092 3093 3095 3097 3098 3100 3102 3103 3102 3102 3102 3101 3101 3102 3102 3102 3101 3099 3096 3097 3096 3093 3091 3088 3087 3085 3082 3077 3072 3068 3064 3060 3057 3053 3048 3044 3039 3035 3029 3024
3089 3088 3089 3089 3089 3090 3091 3092 3094 3095 3096 3096 3096 3097 3096 3095 3094 3092 3092 3092 3090 3087 3087 3087 3085 3083 3081 3079 3076 3073 3067 3063 3059 3055 3051 3047 3043 3039 3035 3030 3024 3018 3013
3085 3084 3084 3085 3085 3085 3085 3086 3088 3088 3089 3090 3090 3089 3090 3089 3087 3086 3085 3082 3079 3076 3079 3079 3076 3075 3072 3069 3067 3062 3058 3054 3049 3046 3042 3038 3034 3030 3025 3019 3014 3007 3002
3080 3080 3080 3080 3080 3080 3080 3081 3083 3083 3083 3083 3083 3083 3083 3082 3082 3080 3077 3077 3074 3076 3073 3072 3069 3066 3063 3059 3055 3052 3048 3044 3040 3036 3032 3027 3023 3020 3015 3009 3003 2997 2990
3074 3074 3074 3075 3074 3074 3074 3075 3076 3077 3077 3076 3077 3076 3075 3075 3074 3073 3072 3070 3068 3067 3065 3063 3060 3057 3053 3049 3046 3043 3040 3035 3031 3026 3022 3016 3011 3005 3002 2997 2992 2987 2979
3066 3067 3068 3068 3068 3068 3068 3068 3068 3069 3069 3068 3069 3069 3068 3067 3066 3066 3065 3064 3062 3059 3056 3053 3050 3048 3044 3041 3039 3035 3030 3025 3021 3016 3011 3005 3000 2993 2988 2982 2976 2973 2969
3057 3057 3058 3059 3060 3061 3061 3062 3062 3062 3061 3062 3062 3061 3060 3059 3059 3059 3058 3056 3053 3051 3048 3045 3042 3039 3037 3034 3030 3025 3019 3014 3010 3005 2999 2993 2988 2981 2975 2970 2964 2959 2955
3052 3053 3053 3054 3055 3056 3056 3056 3056 3056 3055 3055 3055 3054 3053 3054 3053 3051 3049 3048 3045 3043 3040 3037 3034 3030 3027 3023 3020 3014 3008 3003 2999 2993 2987 2981 2974 2968 2962 2956 2952 2949 2946
3049 3049 3050 3050 3050 3051 3051 3050 3050 3049 3049 3048 3048 3047 3047 3046 3044 3043 3042 3040 3037 3034 3031 3028 3025 3022 3018 3014 3010 3004 2998 2992 2986 2980 2973 2966 2959 2954 2950 2943 2940 2937 2937
3045 3045 3045 3045 3044 3044 3043 3042 3042 3042 3042 3041 3040 3040 3040 3039 3037 3035 3034 3031 3028 3025 3023 3020 3016 3013 3009 3004 2999 2994 2986 2979 2973 2965 2958 2952 2945 2939 2936 2933 2930 2929 2927
3039 3040 3040 3040 3039 3039 3038 3037 3036 3036 3035 3034 3034 3033 3032 3030 3029 3026 3024 3022 3019 3017 3013 3010 3007 3003 2998 2993 2988 2983 2977 2969 2960 2953 2945 2937 2932 2926 2922 2920 2919 2919 2916
3035 3034 3034 3034 3034 3034 3033 3031 3030 3030 3029 3028 3026 3025 3023 3021 3020 3018 3016 3013 3010 3007 3003 2999 2995 2991 2986 2981 2976 2969 2962 2955 2945 2937 2931 2924 2918 2913 2909 2909 2909 2908 2906
3029 3029 3027 3027 3026 3025 3025 3025 3024 3023 3022 3021 3019 3017 3015 3013 3011 3009 3007 3004 3001 2997 2993 2989 2984 2979 2974 2968 2962 2956 2948 2940 2933 2925 2918 2913 2908 2903 2900 2900 2899 2898 2898
3022 3022 3021 3020 3020 3019 3018 3017 3017 3016 3015 3014 3012 3010 3007 3005 3003 3000 2997 2994 2990 2987 2983 2978 2973 2967 2962 2956 2949 2941 2934 2927 2921 2914 2909 2905 2901 2897 2895 2893 2892 2892 2891
3016 3015 3014 3013 3012 3011 3011 3010 3009 3007 3006 3005 3004 3001 2999 2997 2994 2991 2988 2986 2980 2976 2971 2966 2962 2956 2950 2944 2938 2931 2925 2918 2912 2906 2901 2899 2895 2892 2890 2888 2887 2886 2884